Date,TemperatureHighF,TemperatureAvgF,TemperatureLowF,DewpointHighF,DewpointAvgF,DewpointLowF,HumidityHigh,HumidityAvg,HumidityLow,PressureMaxIn,PressureMinIn,WindSpeedMaxMPH,WindSpeedAvgMPH,GustSpeedMaxMPH,PrecipitationSumIn
2013-1-11,52.2,48.6,46.9,47.7,45.8,44.4,92,90,81,30.23,30.04,0,0,0,0.20
2013-1-12,72.3,59.5,48.0,63.3,55.1,45.7,93,86,72,30.04,29.98,0,0,0,0.02
2013-1-13,73.0,64.7,57.7,61.6,58.2,55.0,91,80,67,30.01,29.94,0,0,0,0.00
2013-1-14,65.1,63.1,60.4,62.1,59.5,57.0,92,88,81,30.01,29.95,0,0,0,0.10
2013-1-15,64.2,48.7,42.1,59.9,46.1,39.9,92,91,86,30.06,29.93,0,0,0,0.11
2013-1-16,41.7,41.7,41.7,39.5,39.5,39.5,92,92,92,29.94,29.94,0,0,0,0.00
2013-1-17,40.6,36.8,33.8,37.9,34.1,31.1,91,90,89,30.06,29.74,0,0,0,0.16
2013-1-18,51.4,37.5,30.2,32.5,28.8,25.4,91,73,43,30.38,30.05,0,0,0,0.00
2013-1-19,58.8,39.8,26.2,32.4,27.4,22.0,85,64,35,30.36,30.04,0,0,0,0.00
2013-1-20,64.8,48.2,36.3,37.7,31.0,26.7,68,52,36,30.04,29.90,0,0,0,0.00
2013-1-21,61.2,44.6,30.9,35.1,28.0,19.0,81,55,34,29.96,29.79,0,0,0,0.00
2013-1-22,46.0,35.0,26.4,19.1,11.9,6.2,57,39,25,30.12,29.87,0,0,0,0.00
2013-1-23,49.1,33.0,19.9,26.4,15.3,7.5,65,49,35,30.22,29.92,0,0,0,0.00
2013-1-24,46.4,36.7,25.3,32.2,19.2,7.3,76,51,34,30.36,29.84,0,0,0,0.00
2013-1-25,27.1,24.8,19.4,22.0,15.0,7.5,82,67,47,30.37,29.98,0,0,0,0.00
2013-1-26,51.6,33.7,25.9,36.3,27.6,21.1,89,79,52,30.23,29.96,0,0,0,0.02
2013-1-27,46.6,35.8,25.3,30.3,26.0,20.1,85,68,52,30.44,30.23,0,0,0,0.00
2013-1-28,50.4,43.0,34.5,45.6,36.0,27.3,86,77,64,30.34,30.12,0,0,0,0.02
2013-1-29,73.0,59.3,46.8,58.7,51.7,43.4,88,77,59,30.13,29.93,0,0,0,0.00
2013-1-30,75.9,66.2,52.0,62.2,59.1,47.0,89,79,61,29.94,29.33,0,0,0,0.45
2013-1-31,51.3,44.0,34.7,45.9,28.2,20.5,82,55,36,29.90,29.44,0,0,0,0.00
2013-2-1,41.5,36.0,23.5,27.1,14.9,7.5,59,43,29,30.23,29.78,0,0,0,0.02
2013-2-2,47.5,34.4,20.8,32.8,17.5,10.7,73,52,32,30.24,29.90,0,0,0,0.00
2013-2-3,54.3,42.5,33.4,33.1,28.2,21.4,81,59,37,29.90,29.74,0,0,0,0.00
2013-2-4,51.6,39.8,27.5,28.6,24.0,18.7,73,54,39,30.01,29.88,0,0,0,0.00
2013-2-5,65.5,48.9,38.8,41.1,33.1,26.6,71,55,41,29.87,29.76,0,0,0,0.00
2013-2-6,67.3,49.0,39.0,38.9,32.4,24.4,86,57,28,30.10,29.86,0,0,0,0.02
2013-2-7,44.4,40.6,38.1,36.8,31.8,24.6,88,72,51,30.16,29.87,0,0,0,0.31
2013-2-8,60.6,46.2,37.6,46.2,37.1,27.3,89,72,50,29.97,29.74,0,0,0,0.04
2013-2-9,62.6,42.6,31.3,27.4,24.6,21.7,75,52,25,30.21,29.97,0,0,0,0.00
2013-2-10,58.1,44.6,32.4,44.4,28.5,20.8,86,56,31,30.32,30.05,0,0,0,0.06
2013-2-11,58.8,55.6,48.2,56.2,52.2,44.7,91,88,86,30.05,29.85,0,0,0,0.12
2013-2-12,59.2,51.0,40.1,49.0,38.9,30.9,90,66,35,29.99,29.79,0,0,0,0.00
2013-2-13,47.8,45.4,40.6,44.2,41.4,33.9,90,86,75,29.82,29.54,0,0,0,0.10
2013-2-14,52.2,40.0,29.8,36.3,31.8,26.7,88,74,52,29.94,29.75,0,0,0,0.00
2013-2-15,63.5,47.6,33.6,39.1,34.2,29.8,87,63,35,29.97,29.81,0,0,0,0.00
2013-2-16,45.3,36.1,27.0,34.4,29.0,20.3,87,76,65,29.86,29.71,0,0,0,0.02
2013-2-17,43.0,30.5,21.9,20.5,15.3,12.3,76,55,32,30.13,29.87,0,0,0,0.02
2013-2-18,57.7,38.3,21.4,32.2,22.2,14.1,77,54,36,30.24,30.08,0,0,0,0.02
2013-2-19,46.9,41.5,36.7,42.0,33.8,23.3,87,75,54,30.09,29.76,0,0,0,0.11
2013-2-20,54.0,41.2,28.2,25.0,20.2,14.2,70,45,27,30.00,29.89,0,0,0,0.00
2013-2-21,60.1,41.8,26.2,33.4,21.9,14.4,71,47,27,30.13,29.97,0,0,0,0.00
2013-2-22,43.0,38.0,36.3,34.9,33.8,32.0,89,85,65,30.19,29.99,0,0,0,0.36
2013-2-23,43.3,39.4,36.0,40.6,36.5,33.0,90,89,88,30.00,29.71,0,0,0,0.27
2013-2-24,66.6,50.0,39.2,45.0,37.1,27.2,92,66,31,29.91,29.71,0,0,0,0.00
2013-2-25,42.6,39.8,37.2,28.2,26.4,24.7,66,59,56,30.06,29.89,0,0,0,0.00
2013-2-26,43.2,37.9,33.4,40.5,33.5,24.9,91,85,59,29.95,29.46,0,0,0,0.34
2013-2-27,59.7,47.1,36.7,41.1,37.4,33.7,91,71,49,29.69,29.53,0,0,0,0.00
2013-2-28,52.2,41.2,32.5,33.8,28.4,23.9,84,62,42,29.77,29.60,0,0,0,0.00
2013-3-1,46.0,38.6,29.3,30.5,27.6,23.4,79,65,52,29.80,29.74,0,0,0,0.00
2013-3-2,46.0,38.8,29.8,34.8,29.4,21.2,79,69,58,29.82,29.71,0,0,0,0.00
2013-3-3,48.7,34.7,25.5,24.3,19.4,16.3,73,54,36,29.88,29.76,0,0,0,0.00
2013-3-4,56.8,38.7,23.2,25.7,19.7,13.8,70,48,28,30.01,29.87,0,0,0,0.00
2013-3-5,51.1,46.0,41.7,43.8,34.9,23.1,89,67,41,29.94,29.49,0,0,0,0.27
2013-3-6,48.0,40.4,33.4,40.0,26.4,20.8,89,58,44,29.99,29.49,0,0,0,0.06
2013-3-7,57.6,40.5,28.8,32.2,26.6,22.4,77,59,38,30.14,29.98,0,0,0,0.00
2013-3-8,58.6,42.3,29.7,28.1,24.4,20.5,70,51,30,30.20,30.08,0,0,0,0.00
2013-3-9,66.4,46.7,32.2,37.6,29.8,22.8,70,53,32,30.22,30.10,0,0,0,0.00
2013-3-10,70.5,53.0,38.1,42.1,36.4,31.2,77,55,34,30.17,30.05,0,0,0,0.00
2013-3-11,69.6,55.8,41.5,52.5,41.2,26.4,85,58,43,30.08,29.76,0,0,0,0.04
2013-3-12,70.5,59.4,47.1,57.3,48.0,30.1,90,69,34,29.87,29.64,0,0,0,0.25
2013-3-13,56.5,44.9,33.4,32.0,26.7,17.6,80,52,30,30.03,29.86,0,0,0,0.00
2013-3-14,55.0,39.7,28.2,23.9,19.2,15.5,59,44,28,30.15,30.02,0,0,0,0.00
2013-3-15,68.4,48.2,29.1,40.9,29.6,20.2,70,50,36,30.07,29.79,0,0,0,0.00
2013-3-16,77.5,65.9,57.4,49.3,44.4,39.5,58,47,36,29.78,29.61,0,0,0,0.00
2013-3-17,72.5,57.9,46.2,54.3,43.8,38.1,73,60,45,29.99,29.75,0,0,0,0.00
2013-3-18,46.2,41.8,39.0,40.0,37.8,36.0,90,86,74,30.02,29.74,0,0,0,0.53
2013-3-19,66.9,51.0,39.4,44.3,33.5,19.1,92,59,26,29.92,29.72,0,0,0,0.00
2013-3-20,59.4,49.2,41.7,27.0,20.0,12.8,46,32,25,29.99,29.66,0,0,0,0.00
2013-3-21,46.6,38.9,31.6,25.8,15.1,10.7,52,38,28,29.86,29.66,0,0,0,0.00
2013-3-22,55.0,38.3,22.8,25.5,17.9,10.8,67,45,30,29.95,29.84,0,0,0,0.00
2013-3-23,57.7,45.6,38.8,42.1,34.3,23.6,81,65,41,29.94,29.79,0,0,0,0.00
2013-3-24,43.5,40.7,37.9,39.1,36.9,34.7,89,86,82,29.82,29.44,0,0,0,0.32
2013-3-25,47.1,40.8,36.5,36.4,28.6,21.6,89,65,38,29.75,29.44,0,0,0,0.11
2013-3-26,46.6,39.4,30.6,27.0,24.3,21.6,70,55,44,30.04,29.76,0,0,0,0.00
2013-3-27,54.0,40.6,29.8,28.1,23.6,20.7,73,53,33,30.13,30.03,0,0,0,0.00
2013-3-28,58.6,42.1,29.1,27.3,23.1,19.6,69,49,28,30.17,30.07,0,0,0,0.00
2013-3-29,65.3,46.9,28.9,34.9,27.9,21.8,76,50,30,30.22,30.05,0,0,0,0.00
2013-3-30,52.3,47.6,45.1,44.7,39.9,34.8,87,76,54,30.10,30.07,0,0,0,0.08
2013-3-31,70.7,60.6,50.4,56.2,51.7,44.5,89,74,55,29.93,29.70,0,0,0,0.06
2013-4-1,73.2,61.0,54.0,53.1,45.5,37.0,90,61,33,29.85,29.73,0,0,0,0.00
2013-4-2,66.6,52.1,38.5,36.9,32.5,24.9,75,50,25,30.04,29.85,0,0,0,0.00
2013-4-3,60.4,51.6,41.5,32.3,26.0,19.6,51,37,28,30.16,30.01,0,0,0,0.00
2013-4-4,47.5,41.7,36.3,35.7,30.7,21.7,87,67,38,30.16,29.85,0,0,0,0.45
2013-4-5,68.2,49.8,36.3,46.9,39.4,32.8,89,70,39,29.93,29.77,0,0,0,0.00
2013-4-6,72.5,55.3,40.8,43.0,38.1,34.4,80,55,32,30.11,29.93,0,0,0,0.00
2013-4-7,72.9,57.4,41.2,49.5,43.0,32.7,77,60,42,30.14,29.99,0,0,0,0.00
2013-4-8,81.3,66.7,55.9,57.3,52.6,48.1,83,62,41,30.06,29.95,0,0,0,0.00
2013-4-9,85.6,70.6,54.0,61.1,55.5,48.6,85,61,41,30.09,29.98,0,0,0,0.00
2013-4-10,87.6,74.1,62.4,62.6,58.4,55.1,81,60,42,30.01,29.86,0,0,0,0.00
2013-4-11,83.1,70.9,61.7,65.4,60.6,55.0,85,71,51,29.88,29.66,0,0,0,0.00
2013-4-12,77.9,70.1,65.8,64.2,63.0,60.1,90,79,58,29.66,29.57,0,0,0,0.20
2013-4-13,80.2,61.3,44.8,46.9,42.2,39.3,81,53,29,29.92,29.73,0,0,0,0.00
2013-4-14,77.7,62.2,45.0,51.2,44.9,38.5,78,55,34,29.98,29.89,0,0,0,0.00
2013-4-15,71.1,62.6,56.8,60.8,55.9,50.7,88,79,68,30.09,29.87,0,0,0,0.04
2013-4-16,82.6,67.1,57.7,63.7,58.1,53.9,90,74,49,30.19,30.08,0,0,0,0.00
2013-4-17,84.2,70.0,59.0,63.8,59.0,54.2,85,70,47,30.14,30.00,0,0,0,0.00
2013-4-18,81.7,70.8,62.4,63.5,60.2,57.1,84,70,50,30.07,29.90,0,0,0,0.00
2013-4-19,79.5,68.1,56.1,67.4,61.4,50.6,87,79,60,29.89,29.65,0,0,0,0.23
2013-4-20,68.2,53.8,43.3,50.8,37.3,30.3,84,56,33,30.15,29.80,0,0,0,0.02
2013-4-21,65.5,52.9,41.9,44.9,38.6,33.2,80,59,43,30.32,30.15,0,0,0,0.00
2013-4-22,67.8,52.5,40.8,40.0,36.0,32.6,76,56,33,30.30,30.11,0,0,0,0.00
2013-4-23,73.4,57.8,48.7,55.5,46.6,38.2,83,67,51,30.15,30.00,0,0,0,0.00
2013-4-24,75.0,62.7,51.4,58.0,53.3,47.3,88,73,53,30.02,29.89,0,0,0,0.00
2013-4-25,75.4,60.5,49.6,56.1,44.8,38.0,84,59,29,30.18,29.93,0,0,0,0.00
2013-4-26,75.0,59.1,45.0,46.2,39.0,32.8,67,49,31,30.32,30.18,0,0,0,0.00
2013-4-27,65.5,58.6,55.2,53.8,49.3,44.9,88,72,59,30.25,30.14,0,0,0,0.02
2013-4-28,57.7,55.8,54.7,54.9,52.8,51.5,92,90,88,30.15,29.94,0,0,0,1.20
2013-4-29,78.1,62.8,55.9,63.8,57.8,53.6,93,85,60,29.94,29.84,0,0,0,0.31
2013-4-30,75.0,63.9,57.9,63.2,58.5,53.1,92,83,64,30.07,29.88,0,0,0,0.00
2013-5-1,64.9,58.9,52.9,56.8,54.1,49.7,90,84,74,30.18,30.06,0,0,0,0.00
2013-5-2,63.3,58.8,55.9,57.0,54.8,53.3,91,87,80,30.19,30.11,0,0,0,0.04
2013-5-3,68.4,60.5,53.8,55.2,51.9,45.8,87,74,61,30.12,30.01,0,0,0,0.00
2013-5-4,63.7,55.9,49.6,51.0,47.0,42.1,82,72,61,30.02,29.89,0,0,0,0.00
2013-5-5,58.8,54.1,51.1,56.2,49.9,46.4,91,86,79,29.93,29.75,0,0,0,0.10
2013-5-6,75.9,63.1,54.1,61.3,55.0,47.1,92,77,48,29.80,29.71,0,0,0,0.31
2013-5-7,72.7,58.1,48.4,55.0,48.9,44.7,88,73,49,29.84,29.74,0,0,0,0.08
2013-5-8,77.7,63.2,50.2,60.7,54.3,47.3,91,75,48,29.91,29.81,0,0,0,0.00
2013-5-9,84.4,67.2,52.9,60.1,55.1,50.0,90,68,40,29.97,29.89,0,0,0,0.00
2013-5-10,84.0,70.7,55.9,64.0,58.7,52.4,89,68,46,29.97,29.85,0,0,0,0.00
2013-5-11,79.5,71.0,62.4,65.2,60.8,57.2,88,71,54,29.86,29.71,0,0,0,0.16
2013-5-12,74.5,64.3,55.2,59.4,49.0,36.0,89,60,35,29.94,29.74,0,0,0,0.00
2013-5-13,70.9,56.6,43.2,43.0,37.4,32.8,80,51,28,30.06,29.93,0,0,0,0.00
2013-5-14,76.5,59.6,42.4,48.3,41.2,34.6,78,53,35,30.13,29.97,0,0,0,0.00
2013-5-15,91.2,74.2,58.5,65.1,56.7,45.3,73,56,40,29.97,29.84,0,0,0,0.00
2013-5-16,85.6,73.6,60.4,64.3,58.9,54.5,83,61,41,29.93,29.83,0,0,0,0.00
2013-5-17,88.5,74.7,61.3,67.8,62.0,44.7,86,66,28,29.99,29.90,0,0,0,0.00
2013-5-18,73.8,69.4,63.7,65.0,62.3,59.1,88,78,67,30.05,29.97,0,0,0,0.00
2013-5-19,78.4,69.4,66.0,70.3,65.1,62.5,91,87,71,30.02,29.94,0,0,0,0.53
2013-5-20,85.3,72.2,66.7,70.7,66.6,64.3,93,83,59,30.02,29.91,0,0,0,0.14
2013-5-21,84.4,72.2,66.4,72.4,66.3,62.6,92,82,59,29.96,29.85,0,0,0,0.00
2013-5-22,87.6,74.4,65.5,72.1,66.0,61.3,91,77,53,29.92,29.79,0,0,0,0.04
2013-5-23,83.5,70.3,64.4,70.5,64.1,61.4,91,81,60,29.87,29.73,0,0,0,0.47
2013-5-24,74.8,65.1,54.1,62.2,50.2,37.5,91,63,31,30.10,29.77,0,0,0,0.00
2013-5-25,80.1,60.7,43.7,51.9,44.8,38.4,85,59,33,30.20,30.05,0,0,0,0.00
2013-5-26,79.0,64.1,54.7,54.3,48.4,42.2,80,58,37,30.19,30.07,0,0,0,0.04
2013-5-27,86.9,69.0,53.4,62.9,55.8,49.0,87,66,42,30.18,30.05,0,0,0,0.00
2013-5-28,87.6,74.1,63.5,67.5,62.2,56.7,86,68,50,30.15,30.06,0,0,0,0.00
2013-5-29,90.3,74.7,63.3,67.6,62.3,58.0,83,67,45,30.16,30.07,0,0,0,0.00
2013-5-30,90.0,74.3,61.7,67.5,62.5,57.8,88,69,42,30.19,30.08,0,0,0,0.00
2013-5-31,91.0,75.7,64.9,68.9,65.1,61.1,89,71,47,30.15,30.02,0,0,0,0.00
2013-6-1,91.6,76.6,67.8,69.7,66.4,63.5,87,72,49,30.05,29.95,0,0,0,0.00